Miscellaneous Local Product
Issued by NWS Hastings, NE

Home | Current Version | Previous Version | Graphics & Text | Print | Product List | Glossary On
Versions: 1 2 3 4 5 6 7 8 9 10 11 12 13 14 15 16 17 18 19 20 21 22 23 24 25 26 27 28 29 30 31 32 33 34 35 36 37 38 39 40 41 42 43 44 45 46 47 48 49 50
000
AXUS43 KGID 170502
MISGRI

GID CWA HOURLY WEATHER ROUNDUP
NATIONAL WEATHER SERVICE HASTINGS NE
1200 AM CDT FRI APR 17 2015

NOTE: "FAIR" INDICATES FEW OR NO CLOUDS BELOW 12,000 FEET WITH NO
SIGNIFICANT WEATHER AND/OR OBSTRUCTIONS TO VISIBILITY.

...SOUTH CENTRAL NEBRASKA...

CITY           SKY/WX    TMP DP  RH WIND       PRES   REMARKS
GRAND ISLAND   CLOUDY    56  53  90 SE5       30.07F
HASTINGS       CLOUDY    57  52  83 E7        30.06F
KEARNEY        CLOUDY    54  52  94 SE9       30.05F
ORD            CLOUDY    56  50  80 CALM      30.10S
YORK           CLOUDY    59  54  82 CALM      30.10R
AURORA         CLOUDY    56  55  97 SE6       30.08F
LEXINGTON      CLOUDY    55  53  93 NE9       30.06F
HOLDREGE       CLOUDY    55  52  91 E12       30.05F
HEBRON         CLOUDY    59  55  85 NE12      30.07F

...NEBRASKA PANHANDLE...

CITY           SKY/WX    TMP DP  RH WIND       PRES   REMARKS
CHADRON        CLOUDY    48  36  63 NE6       30.19S
ALLIANCE       CLOUDY    48  39  71 N15       30.15S
SCOTTSBLUFF    CLOUDY    46  42  86 W6        30.17R
SIDNEY         LGT RAIN  46  44  93 N9        30.13F

...WESTERN AND NORTH CENTRAL NEBRASKA...

CITY           SKY/WX    TMP DP  RH WIND       PRES   REMARKS
VALENTINE      CLOUDY    56  39  53 N13       30.13S
AINSWORTH      CLOUDY    55  52  90 NW5       30.12S
ONEILL         CLOUDY    54  51  90 N3        30.11S
BROKEN BOW     CLOUDY    55  50  83 NE7       30.10S
IMPERIAL       CLOUDY    52  50  93 NE5       30.08S FOG
NORTH PLATTE   CLOUDY    54  50  86 NE13      30.08F
MCCOOK         LGT RAIN  54  52  93 N7        30.05S FOG

...EASTERN NEBRASKA...

CITY           SKY/WX    TMP DP  RH WIND       PRES   REMARKS
NORFOLK        NOT AVBL
SO SIOUX CITY  CLOUDY    55  47  74 CALM      30.08R
TEKAMAH        CLOUDY    56  48  74 CALM      30.07S
COLUMBUS       CLOUDY    55  46  71 NE5       30.10S
ALBION         CLOUDY    58  47  66 NE8       30.09F
OMAHA EPPLEY   MOCLDY    57  51  80 W5        30.08R
OFFUTT AFB     MOCLDY    59  52  78 CALM      30.07S
MILLARD        MOCLDY    59  51  77 CALM      30.08R
LINCOLN        CLOUDY    58  50  75 CALM      30.09R
NEBRASKA CITY  CLOUDY    61  48  62 SE3       30.08S
BEATRICE       CLOUDY    61  56  83 SW7G31    30.11R VSB 1
FALLS CITY     CLOUDY    60  53  77 E3        30.07R

...NORTHERN KANSAS...

CITY           SKY/WX    TMP DP  RH WIND       PRES   REMARKS
GOODLAND       HVY RAIN  51  51 100 N9        30.09R FOG
HILL CITY      CLOUDY    54  52  93 NE8       30.01F
NORTON         PTCLDY    54  50  87 NE9       30.03R
PHILLIPSBURG   PTCLDY    55  52  88 NE6       30.05R
SMITH CENTER   CLEAR     55  48  76 NE15      30.04F
BELOIT         CLOUDY    61  50  67 N13       30.01F
HAYS           CLOUDY    57  46  67 SE15      29.98F
RUSSELL        CLOUDY    58  52  80 SE16      29.98F
CONCORDIA      CLOUDY    58  50  75 NE6       30.04S
SALINA         CLOUDY    58  52  80 CALM      30.05R
TOPEKA         CLOUDY    61  56  83 E8        30.05F



USA.gov is the U.S. government's official web portal to all federal, state and local government web resources and services.